Wind_Speed
112 114 115 116 117 119 120 121 121 121 122 122 121 120 119 118 117 116 115 114 114 113 113 112 112 111 111 111 111 111 111 110 110 110 109 109 108 108 107 106 106 105 105 104 103 103 103 102 102 103 103 103 103 103 103 103 103 103 103 102 102 102 102 102 102 103 103 103 103 103 103 103 102 103 103 104 104 104 104 104 104 105 105 106 107 108
116 117 118 119 120 121 122 122 122 121 121 120 119 117 116 115 113 112 111 110 110 109 109 108 108 107 107 107 107 106 106 106 106 105 105 104 104 103 102 102 101 101 100 100 99 99 99 99 99 99 99 99 99 99 99 99 99 99 99 98 98 98 98 99 99 99 99 100 100 100 99 99 99 99 100 100 100 100 100 100 100 101 101 102 103 104
119 120 121 121 121 122 122 121 120 120 118 117 115 113 112 110 109 108 108 107 106 106 105 105 104 104 103 103 102 102 102 102 101 101 100 100 99 99 98 98 97 97 96 96 96 95 95 95 96 96 96 96 96 95 95 95 95 95 95 95 95 95 95 95 96 96 96 96 96 96 96 96 96 96 96 97 97 97 96 97 97 97 98 98 99 100
122 122 123 122 122 121 120 119 118 117 115 113 111 110 108 107 106 105 104 104 103 103 102 101 100 100 99 99 98 98 98 97 97 97 96 96 95 95 94 94 94 93 93 92 92 92 92 92 92 92 92 92 92 92 91 91 91 91 91 91 91 92 92 92 92 93 93 93 93 93 93 93 93 93 93 93 93 93 93 94 94 94 95 95 96 96
123 123 123 122 121 120 118 117 115 113 111 109 108 106 105 104 103 102 102 101 100 99 99 98 97 96 96 95 95 94 94 93 93 93 92 92 92 91 91 91 90 90 90 89 89 89 89 89 89 89 88 88 88 88 87 87 87 87 88 88 88 89 89 89 89 89 89 89 89 89 90 90 90 90 90 90 90 90 90 91 91 91 92 92 92 93
124 123 122 121 119 118 116 114 112 110 108 106 104 103 102 101 101 100 99 98 97 96 95 95 94 93 92 92 91 90 90 90 89 89 88 88 88 88 87 87 87 87 86 86 86 85 85 85 85 85 85 84 84 84 84 84 84 84 85 85 85 86 86 86 86 86 86 86 86 86 86 87 87 87 87 87 87 87 87 88 88 88 89 89 89 90
123 121 120 118 117 115 113 111 109 107 105 103 102 101 100 99 98 97 96 96 94 93 92 91 91 90 90 89 88 87 86 86 86 86 85 85 85 85 84 84 84 83 83 83 82 82 82 82 82 81 81 81 80 80 80 80 81 81 82 82 83 83 83 83 83 83 83 83 83 83 83 84 84 84 84 84 84 84 85 85 85 86 86 86 86 87
122 120 118 116 114 112 110 108 106 104 102 101 100 99 98 96 95 94 94 93 92 91 89 89 88 88 87 86 85 84 83 83 83 83 82 82 82 82 81 81 81 80 80 79 79 79 79 78 78 78 77 77 77 77 77 78 79 79 79 80 80 80 80 80 80 80 80 80 80 80 81 81 81 81 82 82 82 82 82 82 83 83 83 84 84 84
120 118 116 114 112 110 108 106 104 102 100 99 98 97 95 94 93 92 91 91 90 88 87 86 85 85 84 83 82 81 81 81 80 80 80 80 79 79 78 78 77 77 77 76 76 76 76 75 75 74 74 74 74 75 75 76 76 77 77 77 77 77 77 77 77 77 77 77 77 78 78 78 79 79 79 79 80 80 80 80 80 81 81 81 81 82
117 115 113 112 109 107 105 104 102 100 98 97 96 94 93 92 90 89 88 88 87 86 85 84 83 82 81 80 80 79 79 79 78 78 77 77 76 76 75 75 74 74 74 74 73 73 73 72 72 72 72 72 72 73 73 74 74 75 75 75 75 74 74 74 74 74 74 74 75 75 75 76 76 77 77 77 78 78 78 78 78 79 79 79 79 80
114 112 111 109 107 104 103 101 99 98 96 95 93 92 90 89 87 86 85 85 84 84 83 81 80 79 78 78 77 77 77 76 76 75 75 74 73 72 72 72 72 72 71 71 71 70 70 70 69 69 70 70 71 71 72 72 72 72 72 72 72 72 72 72 71 72 72 72 72 73 73 73 74 75 75 75 76 76 76 77 77 77 77 77 77 78
112 110 108 106 104 102 100 98 96 95 94 92 91 89 88 86 85 83 82 82 82 81 80 80 78 77 76 75 75 75 75 74 74 73 72 71 70 69 69 69 69 70 69 69 69 68 68 67 67 67 68 68 68 69 69 70 70 70 70 70 70 70 69 69 69 69 69 70 70 71 71 71 72 72 73 73 74 74 75 75 75 75 75 76 76 76
109 107 105 103 101 99 97 95 94 92 91 89 88 87 85 84 83 81 80 80 79 79 78 77 76 75 74 73 72 72 72 72 71 70 69 68 67 67 67 67 67 67 67 67 67 66 66 65 65 65 66 66 66 66 67 67 67 68 68 68 68 67 67 67 67 67 67 68 68 69 69 69 70 70 71 71 72 72 73 73 74 74 74 74 74 74
105 103 101 99 98 96 94 92 91 89 88 87 85 84 83 82 80 79 79 78 77 76 76 75 74 73 71 71 70 70 70 69 69 68 67 66 65 65 65 65 65 65 64 64 64 63 63 63 63 63 63 63 64 64 64 65 65 66 66 66 65 65 65 65 65 65 65 66 66 66 67 67 67 68 68 69 69 70 71 71 72 72 72 73 73 73
102 100 98 96 95 93 91 90 88 86 85 84 83 82 81 79 78 78 77 76 75 74 73 73 72 71 69 68 68 67 67 66 66 65 64 63 63 63 62 62 62 62 61 61 61 61 61 61 61 61 61 61 61 62 62 63 63 63 63 63 63 63 63 63 63 63 63 63 64 64 64 65 65 65 66 66 67 68 68 69 70 70 71 71 72 72
99 97 95 94 92 90 89 87 86 84 83 82 81 80 79 78 77 76 75 74 73 72 71 70 70 69 67 66 65 64 64 64 63 62 62 61 61 60 60 60 60 59 59 59 59 59 59 58 58 58 58 59 59 59 60 60 61 61 61 61 61 61 60 60 60 60 60 61 61 61 62 62 62 63 63 64 64 65 66 67 68 68 69 70 70 70
96 94 93 91 90 88 87 85 84 83 82 81 80 79 77 76 75 74 73 72 71 70 69 68 67 66 65 64 63 62 61 61 60 60 59 59 58 58 58 57 57 57 57 56 56 56 56 56 56 56 56 56 57 57 57 58 58 58 58 58 58 58 58 58 58 58 58 58 58 58 59 59 60 60 61 61 62 63 64 65 65 66 67 68 68 69
93 92 91 89 88 86 85 84 83 81 80 80 79 77 76 75 73 72 71 69 68 67 66 66 65 64 63 62 61 60 59 58 58 57 57 56 56 56 55 55 55 55 54 54 54 54 54 54 54 54 54 54 54 55 55 55 55 55 55 55 55 55 55 55 55 55 55 55 55 56 56 57 57 58 58 59 60 60 61 62 63 64 65 65 66 67
91 90 89 87 86 85 84 83 81 80 79 78 77 76 74 73 71 70 68 67 66 65 64 63 62 61 61 60 59 59 57 56 55 55 54 54 53 53 53 53 52 52 52 52 52 51 51 51 51 51 51 51 52 52 52 52 53 53 53 52 52 52 52 52 52 52 53 53 53 53 54 54 55 55 56 56 57 58 59 59 60 61 62 63 64 64
90 89 87 86 85 84 83 81 80 79 78 76 75 74 72 71 69 68 66 65 63 62 61 60 60 59 58 58 57 56 55 54 53 53 52 51 51 51 51 50 50 49 49 49 49 49 48 48 48 48 49 49 49 49 50 50 50 50 50 50 49 50 50 50 50 50 50 51 51 51 52 52 52 53 53 54 55 55 56 57 58 58 59 60 61 62
88 87 86 85 83 82 81 80 79 77 76 74 73 72 70 69 67 65 64 62 61 59 58 58 57 56 56 55 55 54 53 52 51 50 50 49 49 48 48 48 47 47 47 46 46 46 46 46 46 46 46 46 46 47 47 47 47 47 47 47 47 47 47 47 48 48 48 48 48 49 49 50 50 51 51 52 52 53 54 54 55 56 57 58 59 60
87 86 85 83 82 81 80 79 77 76 74 72 71 69 67 66 65 63 62 60 58 57 56 55 54 54 53 53 52 52 51 50 49 48 48 47 47 46 46 45 45 44 44 44 43 43 43 43 43 43 43 43 44 44 44 44 45 45 45 45 45 45 45 45 45 45 46 46 46 47 47 47 48 48 49 49 50 51 52 52 53 54 55 56 57 58
86 85 83 82 81 80 78 77 75 74 72 70 68 66 65 63 62 61 59 58 56 55 54 53 52 51 51 50 50 49 48 48 47 46 45 45 45 44 44 43 42 42 42 41 41 41 41 41 41 41 41 41 41 41 42 42 42 42 42 42 42 42 42 43 43 43 43 43 44 44 44 45 46 46 47 48 48 49 50 50 51 52 53 54 55 56
84 83 82 81 79 78 76 75 73 71 69 67 66 64 62 61 60 58 57 56 54 53 52 51 50 49 49 48 48 47 46 46 45 44 43 43 43 42 42 41 40 40 39 39 39 39 39 39 39 39 39 39 39 39 39 40 40 40 40 40 40 40 40 40 40 40 41 41 41 42 42 43 44 44 45 46 46 47 48 49 49 50 51 52 53 54
83 81 80 79 77 76 74 72 70 69 67 65 63 62 60 59 57 56 55 53 52 51 50 49 48 47 47 46 46 45 45 44 43 42 41 41 41 40 40 39 39 38 38 37 37 37 37 37 37 37 37 37 37 37 37 37 37 37 37 38 38 38 38 38 38 38 39 39 40 40 40 41 41 42 43 44 45 45 46 47 48 48 49 50 51 52
81 80 78 77 75 73 71 69 68 66 64 63 61 60 58 57 55 54 53 51 50 49 48 47 47 46 45 45 44 44 43 42 41 41 40 39 39 39 38 38 37 37 36 36 36 36 36 35 35 35 35 35 35 35 35 35 35 35 35 35 35 36 36 36 36 36 37 37 38 38 39 39 40 40 41 42 43 43 44 45 46 47 47 48 49 50
79 77 76 74 72 70 68 66 65 63 62 60 59 57 56 55 53 52 51 50 48 47 47 46 45 45 44 43 43 42 42 41 40 39 38 38 37 37 37 36 36 36 35 35 35 34 34 34 34 34 33 34 34 34 34 33 33 33 33 33 33 34 34 34 34 35 35 35 36 36 37 38 38 39 40 40 41 42 42 43 44 45 46 46 47 48
76 75 73 71 69 67 65 63 62 60 59 58 56 55 54 52 51 50 49 48 47 46 45 44 44 44 43 42 42 41 41 40 39 38 38 37 36 36 35 35 35 35 34 34 34 33 33 33 33 32 32 32 32 32 32 32 31 31 31 31 31 31 32 32 32 33 33 34 34 35 35 36 37 37 38 39 39 40 40 41 42 43 44 45 45 46
74 72 70 68 66 64 62 61 59 58 57 55 54 53 52 50 49 49 48 47 46 45 44 43 43 42 42 42 41 41 40 39 39 38 37 36 35 35 34 34 34 34 33 33 33 32 32 32 31 31 30 30 30 31 30 30 29 29 29 29 29 30 30 30 31 31 31 32 33 33 34 35 35 36 36 37 38 38 39 40 40 41 42 43 43 44
71 69 67 65 63 61 60 58 57 55 54 53 52 51 50 49 48 47 46 45 44 43 43 42 41 41 40 40 40 40 39 39 38 37 36 35 35 34 33 33 32 32 32 32 32 31 31 31 30 30 29 29 29 29 28 28 28 27 27 27 28 28 28 29 29 29 30 30 31 32 32 33 34 34 35 35 36 36 37 38 38 39 40 41 42 42
68 66 64 62 60 59 57 56 54 53 52 51 49 48 48 47 46 45 45 44 43 42 42 41 40 39 39 39 39 39 39 38 37 36 35 35 34 33 33 32 32 31 32 32 31 30 30 30 29 29 28 27 27 27 26 26 26 26 26 26 26 26 27 27 27 27 28 29 29 30 31 31 32 33 33 33 34 35 35 36 37 37 38 39 40 40
65 63 61 59 58 56 55 53 52 51 50 48 47 46 46 45 44 44 43 42 42 41 41 40 39 38 37 37 37 37 37 37 37 36 35 34 34 33 32 32 31 31 30 31 30 30 29 28 28 27 26 26 25 25 25 24 24 24 24 24 25 25 25 25 25 26 26 27 28 28 29 29 30 31 31 32 32 33 33 34 35 35 36 37 37 38
62 60 58 57 55 54 53 51 50 49 48 47 46 45 44 43 43 42 42 41 41 40 40 39 38 38 37 36 36 36 36 36 36 35 34 34 34 33 32 31 31 30 30 29 29 29 28 28 27 26 25 24 23 23 23 23 23 23 23 23 23 23 23 23 24 24 25 25 26 27 27 28 28 29 29 30 30 31 31 32 33 33 34 35 35 36
59 58 56 55 53 52 51 49 48 47 46 45 44 43 43 42 41 41 40 40 39 39 39 38 38 37 37 36 36 35 35 34 34 34 34 33 33 33 32 31 30 29 29 28 28 28 27 27 26 25 24 23 22 21 21 21 21 22 22 22 21 21 22 22 22 23 23 24 25 25 26 26 26 27 27 28 28 29 29 30 31 31 32 32 33 33
57 55 54 52 51 50 49 48 46 45 45 44 43 42 41 41 40 40 39 39 38 38 38 37 37 37 36 36 36 35 34 34 33 33 33 33 32 32 31 31 30 29 28 28 27 26 26 25 24 23 22 21 21 20 20 20 20 20 20 20 20 20 20 20 21 21 22 22 23 23 24 24 25 25 25 26 26 26 27 28 29 29 30 30 31 31
54 53 52 50 49 48 47 46 45 44 43 42 41 41 40 40 39 38 38 38 37 37 37 37 36 36 36 35 35 35 34 34 33 32 32 32 32 31 31 30 29 28 28 27 26 25 25 24 23 22 21 20 19 19 19 19 18 19 18 18 18 19 19 19 20 20 21 21 21 22 22 22 23 23 23 24 24 24 25 26 26 27 28 28 29 29
52 51 50 49 47 46 45 44 43 42 42 41 40 40 39 38 38 37 37 37 36 36 36 36 36 35 35 35 34 34 34 33 32 32 32 31 31 30 30 29 28 28 27 26 26 25 24 23 22 21 20 19 18 18 17 17 17 17 17 17 17 17 18 18 19 19 19 20 20 20 21 21 21 21 22 22 22 23 23 24 24 25 25 26 27 27
50 49 48 47 46 45 44 43 42 41 40 40 39 38 38 37 37 36 36 36 35 35 35 35 35 35 35 34 34 33 33 32 32 31 31 31 30 30 29 28 28 27 26 26 25 24 23 22 21 20 19 18 17 16 16 16 15 16 16 16 16 16 17 17 18 18 18 18 19 19 19 19 19 20 20 20 20 21 21 22 22 23 23 24 24 25
48 47 46 45 44 43 42 41 41 40 39 39 38 37 37 36 36 35 35 35 35 35 34 34 34 34 34 34 34 33 32 32 31 31 30 30 30 29 28 28 27 26 25 25 24 23 22 21 20 19 18 17 16 15 15 14 14 14 15 15 15 15 16 16 16 17 17 17 17 17 18 18 18 18 18 18 19 19 19 20 20 20 21 21 22 23
46 45 45 44 43 42 41 40 40 39 38 38 37 36 36 35 35 34 34 34 34 34 34 34 34 34 34 33 33 33 32 31 30 30 30 29 29 28 28 27 26 25 24 24 23 22 21 20 19 18 17 15 15 14 13 13 13 13 13 14 14 14 14 15 15 15 15 16 16 16 16 16 17 17 17 17 17 17 17 18 18 18 19 19 20 20
45 44 43 43 42 41 40 39 39 38 37 37 36 36 35 34 34 33 33 33 33 33 33 33 33 32 32 32 32 32 31 30 30 29 29 29 28 28 27 26 25 24 23 23 22 21 20 19 17 16 15 14 13 13 12 12 12 12 13 13 13 13 14 14 14 14 14 14 15 15 15 15 15 15 15 15 15 15 15 15 16 16 16 17 17 18
43 42 42 41 40 40 39 38 38 37 37 36 36 35 34 34 33 33 33 32 32 32 32 32 32 32 31 31 31 30 30 29 29 28 28 28 27 27 26 25 25 24 23 22 21 20 18 17 16 15 14 13 12 11 11 11 11 12 12 12 12 13 13 13 13 13 13 13 13 13 14 14 14 13 13 14 13 14 14 14 14 14 14 15 15 16
42 41 41 40 39 38 38 37 37 36 36 35 35 34 34 33 33 32 32 32 32 32 32 32 31 31 31 30 29 29 29 28 28 27 27 27 26 26 25 25 24 23 22 21 20 19 17 16 15 13 12 11 11 10 10 10 11 11 11 12 12 12 12 12 12 12 12 12 12 12 12 12 12 12 12 12 12 12 12 12 12 12 12 13 13 14
41 40 39 39 38 38 37 37 36 36 35 35 34 34 33 32 32 32 31 31 31 32 32 31 31 31 30 29 28 28 27 27 26 26 26 26 25 25 25 24 23 22 21 20 19 18 17 15 14 12 11 10 10 9 9 10 10 11 11 11 11 11 11 11 11 11 11 11 11 11 11 11 11 11 11 11 11 11 11 10 10 10 11 11 12 13
39 39 38 38 37 37 36 36 35 35 35 34 33 33 32 31 31 30 30 31 31 31 31 31 31 30 30 29 28 27 26 25 25 25 24 24 24 24 23 23 22 21 20 19 18 17 16 15 13 11 10 9 9 8 9 9 10 10 11 11 11 11 11 10 10 10 10 10 10 10 10 9 9 9 9 9 9 9 9 9 9 9 9 10 11 12
38 38 37 37 36 36 36 35 35 34 34 33 33 32 31 30 30 29 29 29 30 30 30 30 30 30 29 28 27 26 25 25 24 23 23 23 23 23 22 22 21 20 19 18 17 16 15 14 12 10 9 8 8 8 8 9 9 10 10 10 10 10 10 10 9 9 9 9 9 9 8 8 8 8 8 8 8 8 8 8 7 8 8 9 10 11
37 37 36 36 36 35 35 34 34 33 33 32 32 31 30 30 29 28 28 28 28 29 29 30 30 29 29 28 27 26 24 24 23 22 22 22 22 21 21 21 20 19 18 17 16 15 14 13 11 10 8 7 7 7 8 8 9 9 10 10 10 9 9 9 8 8 8 8 8 7 7 7 7 7 7 7 7 7 7 6 6 7 7 8 9 10
36 36 35 35 35 34 34 34 33 33 32 32 31 30 30 29 28 28 27 27 27 28 28 29 29 29 28 27 26 25 24 23 22 22 21 21 21 20 20 19 18 18 17 16 15 14 13 12 10 9 7 7 7 7 7 8 8 8 9 9 9 9 8 8 8 7 7 7 7 6 6 6 5 6 6 6 6 6 6 5 5 6 6 7 8 9
35 35 35 34 34 33 33 32 32 31 31 31 30 30 29 28 28 27 26 26 26 27 27 28 28 28 27 26 25 24 23 22 21 21 20 20 20 19 19 18 17 16 16 15 14 13 12 10 9 8 7 6 6 6 6 7 7 8 8 8 8 8 7 7 7 6 6 6 5 5 5 4 4 4 5 5 5 5 5 4 5 5 6 7 8 9
35 34 34 33 33 32 32 31 31 30 30 29 29 29 28 28 27 26 26 26 26 26 27 27 27 27 26 25 24 23 22 21 20 20 19 19 19 18 18 17 16 15 14 14 13 12 11 9 8 7 6 6 6 6 6 6 7 7 8 8 8 7 7 6 6 5 5 5 4 4 3 3 3 3 4 4 4 4 4 4 4 5 6 7 8 9
34 33 33 32 32 31 31 30 30 29 29 28 28 28 27 27 27 26 26 25 25 25 26 26 27 26 26 25 24 23 21 20 19 19 18 18 18 17 17 16 15 14 13 13 12 11 10 8 6 5 5 5 5 5 5 6 6 7 7 7 7 6 6 5 5 4 4 4 3 3 2 2 2 2 2 2 2 3 3 3 4 5 6 8 9 10
Wind_Direction
301 301 301 300 300 300 299 299 298 297 296 295 294 293 292 291 290 290 289 288 288 287 286 286 285 284 284 283 283 282 282 281 281 281 280 280 280 279 279 279 278 278 278 277 277 276 276 275 275 274 273 273 272 272 272 271 271 271 271 270 270 270 269 269 269 268 268 267 267 266 266 265 265 264 263 263 262 262 261 260 260 259 258 257 256 256
302 302 302 301 301 301 300 299 298 298 297 295 294 293 292 292 291 291 290 289 288 288 287 286 285 285 284 284 283 283 283 282 282 281 281 281 280 280 280 279 279 278 278 277 277 276 275 275 274 273 273 273 272 272 272 272 271 271 271 271 270 270 269 269 268 268 267 267 267 266 266 265 265 264 263 263 262 262 261 260 260 259 258 257 257 256
303 303 302 302 302 301 301 300 299 298 297 295 294 294 293 293 292 292 291 290 289 288 287 287 286 286 285 285 284 284 283 283 283 282 282 281 281 281 280 280 279 279 278 277 277 276 275 275 274 273 273 273 272 272 272 272 272 271 271 271 270 270 269 269 268 268 267 267 266 266 266 265 264 264 263 263 262 262 261 260 260 259 258 257 257 256
304 304 303 303 302 302 301 300 299 298 297 296 295 295 294 294 293 292 291 291 290 289 288 288 287 287 286 285 285 284 284 284 283 283 282 282 281 281 280 280 279 278 278 277 276 276 275 275 274 274 273 273 273 273 272 272 272 271 271 271 270 269 269 268 268 267 267 267 266 266 266 265 264 264 263 263 262 262 261 260 260 259 258 257 257 256
305 304 304 304 303 302 301 300 299 298 297 297 296 296 295 295 294 293 292 291 290 290 289 289 288 288 287 286 286 285 285 284 284 283 283 282 281 281 280 279 279 278 277 277 276 276 275 275 274 274 274 273 273 273 273 272 272 271 271 270 270 269 269 268 268 267 267 267 266 266 265 265 264 264 263 263 262 262 261 260 259 259 258 257 256 256
305 305 305 304 304 303 302 300 299 299 298 298 297 297 296 295 294 294 293 292 291 291 290 290 289 288 288 287 286 286 285 285 284 284 283 282 281 281 280 279 279 278 278 277 276 276 276 275 275 274 274 274 274 273 273 273 272 271 271 270 269 269 268 268 268 267 267 267 266 266 266 265 265 264 263 263 262 262 261 260 260 259 258 257 256 255
306 306 305 305 304 303 302 301 300 299 299 299 298 297 297 296 295 294 294 293 292 292 291 291 290 289 289 288 287 287 286 285 285 284 283 282 281 281 280 279 279 278 278 277 277 277 276 276 275 275 275 275 274 274 273 272 272 271 270 270 269 269 268 268 268 267 267 267 266 266 266 265 265 264 264 263 262 262 261 260 259 259 258 257 256 255
307 306 306 305 304 303 302 301 301 300 300 300 299 298 297 296 296 295 295 294 294 293 292 292 291 290 290 289 289 288 287 286 285 284 283 282 282 281 281 280 280 279 279 278 278 277 277 277 276 276 275 275 274 274 273 272 271 270 270 269 269 269 268 268 268 268 267 267 266 266 266 265 265 264 264 263 263 262 261 260 260 259 258 257 256 255
307 307 306 305 304 303 303 302 302 301 301 300 299 299 298 297 297 296 296 295 295 294 293 293 292 291 291 290 290 289 288 287 286 285 284 283 283 282 282 281 281 280 280 279 279 278 278 277 277 276 276 275 274 273 272 271 271 270 270 269 269 269 268 268 268 267 267 267 266 266 266 265 265 264 264 263 263 262 261 260 260 259 258 257 256 255
308 307 306 305 304 303 303 303 303 302 301 301 300 299 299 298 298 297 297 296 296 295 294 293 293 292 292 291 291 290 288 287 286 285 285 284 284 284 283 283 282 281 281 280 279 278 277 277 276 276 275 274 273 272 272 271 271 270 270 270 269 269 269 268 268 267 267 266 266 266 265 265 264 264 263 263 262 262 261 260 259 259 258 257 256 255
308 307 306 305 304 304 304 303 303 302 301 301 300 300 299 299 298 298 298 297 296 296 295 294 294 293 293 292 291 290 289 288 287 286 286 286 285 285 284 283 282 281 280 279 278 278 277 276 276 275 274 274 273 272 272 272 271 271 271 270 270 269 269 268 268 267 267 266 266 265 265 264 264 263 263 262 262 261 261 260 259 259 258 257 256 255
307 307 306 305 305 304 304 303 303 302 302 301 301 300 300 300 299 299 298 298 297 297 296 296 295 294 294 293 292 291 290 289 288 288 287 287 286 285 284 283 282 281 280 279 279 278 277 277 276 275 275 274 273 273 272 272 272 271 271 270 270 269 269 268 268 267 267 266 265 265 264 263 263 262 262 262 261 261 260 260 259 259 258 257 256 255
307 306 306 305 305 304 304 303 303 302 302 302 301 301 301 301 300 300 299 299 298 298 297 296 296 295 294 293 292 291 291 290 289 288 288 287 286 285 284 283 282 281 280 280 279 279 278 278 277 276 275 274 274 273 273 272 272 271 271 270 270 269 269 268 268 267 266 266 265 264 263 263 262 262 261 261 261 260 260 260 259 259 258 257 256 255
307 306 306 305 305 304 303 303 303 303 303 302 302 302 302 302 301 301 300 300 299 298 298 297 296 296 295 294 293 292 291 291 290 289 288 287 286 285 284 283 282 282 281 281 280 279 279 278 277 276 275 275 274 273 273 272 272 271 271 270 270 269 269 268 267 267 266 265 265 264 263 263 262 262 261 261 260 260 260 259 259 258 257 257 256 255
307 306 306 305 305 304 304 304 304 304 304 303 303 303 303 302 302 302 301 301 300 299 299 298 297 296 295 295 294 293 292 291 290 290 289 288 287 286 285 284 283 282 281 281 280 279 278 278 277 276 275 275 274 273 273 272 272 271 271 271 270 269 269 268 267 267 266 265 265 264 264 263 262 262 261 260 260 259 259 258 258 257 257 256 255 255
307 306 306 306 305 305 305 305 305 305 305 304 304 304 304 304 303 303 302 302 301 300 299 299 298 297 296 295 294 293 293 292 291 290 289 288 287 286 285 284 284 283 282 281 280 279 278 278 277 276 276 275 274 273 273 272 272 271 271 271 270 270 269 268 268 267 266 265 265 264 264 263 262 261 261 260 259 258 258 257 257 257 256 255 255 254
307 307 306 306 306 306 306 306 306 306 306 305 305 305 305 304 304 303 303 302 302 301 300 299 299 298 297 296 295 294 293 292 291 291 290 289 288 287 286 285 284 283 282 281 281 280 279 278 278 277 276 275 274 274 273 272 272 271 271 271 270 270 269 269 268 267 266 265 265 264 263 262 262 261 260 259 258 258 257 257 256 256 255 255 254 254
308 307 307 307 307 307 307 307 307 307 307 307 306 306 305 305 304 304 303 303 302 301 301 300 299 298 298 297 296 295 294 293 292 291 290 289 288 287 286 286 285 284 283 282 281 281 280 279 278 277 276 275 275 274 273 273 272 272 271 271 270 270 269 269 268 267 266 265 265 264 263 262 261 260 260 259 258 257 257 256 256 255 255 254 254 253
309 308 308 308 308 308 308 308 308 308 308 307 307 306 306 305 305 304 304 303 302 302 301 301 300 299 298 297 296 295 295 294 293 292 291 290 289 288 287 286 285 285 284 283 282 281 280 280 279 278 277 276 275 274 274 273 272 272 271 271 270 270 269 268 268 267 266 265 264 263 262 262 261 260 259 259 258 257 257 256 255 255 254 254 253 253
309 309 309 309 309 309 309 309 308 308 308 308 307 307 306 306 305 304 304 303 303 302 302 301 300 300 299 298 297 296 296 295 294 293 292 291 290 289 288 287 286 285 284 283 283 282 281 280 279 278 277 276 275 274 274 273 273 272 271 271 270 269 268 268 267 266 265 265 264 263 262 262 261 260 259 259 258 257 256 256 255 254 254 253 253 252
310 309 309 310 310 310 309 309 309 308 308 308 307 307 306 306 305 305 304 304 303 303 302 301 301 300 299 298 298 297 296 295 295 293 292 291 290 289 289 288 287 286 285 284 283 282 281 280 279 278 277 276 275 275 274 273 273 272 271 271 270 269 268 267 267 266 265 265 264 263 262 262 261 260 259 259 258 257 256 255 255 254 253 253 252 252
310 310 310 310 310 310 310 309 309 309 308 308 307 307 306 306 305 305 305 304 304 303 303 302 301 300 300 299 298 297 297 296 295 294 293 292 291 290 289 288 288 287 286 285 284 283 282 281 280 279 277 276 276 275 274 273 273 272 271 271 270 269 268 268 267 266 265 265 264 263 262 262 261 260 259 259 258 257 256 255 254 254 253 252 252 251
311 311 310 310 310 310 310 309 309 309 308 308 307 307 307 306 306 306 305 305 305 304 303 302 301 301 300 299 299 298 297 297 296 295 294 293 292 291 290 290 289 288 287 286 285 284 282 281 280 279 278 277 276 275 274 274 273 273 272 271 271 270 269 268 268 267 266 265 264 264 263 262 261 260 259 259 258 257 256 255 254 253 253 252 251 251
311 311 311 310 310 310 310 310 309 309 308 308 308 307 307 307 306 306 306 306 305 304 304 303 302 301 301 300 299 299 298 298 297 296 296 295 294 293 292 291 290 289 288 287 286 285 283 282 281 280 279 278 277 276 275 275 274 273 273 272 272 271 270 269 269 268 267 266 265 264 263 262 261 260 259 258 258 257 256 255 254 253 252 251 251 250
311 311 311 310 310 310 310 310 309 309 309 308 308 307 307 307 307 307 306 306 306 305 304 304 303 302 302 301 301 300 299 299 298 298 297 296 295 295 294 293 292 291 289 288 287 286 284 283 282 281 280 279 278 277 276 275 275 274 274 273 273 272 271 270 269 269 268 266 265 264 263 262 261 260 259 258 257 257 256 255 254 253 252 251 250 250
311 311 311 310 310 310 310 310 309 309 309 308 308 308 308 308 308 307 307 307 306 306 305 305 304 303 303 302 302 301 300 300 300 299 299 298 297 296 296 295 294 293 291 290 289 287 286 284 283 282 281 280 279 278 277 276 276 275 274 274 273 273 272 271 270 269 268 267 266 265 264 262 261 260 259 258 257 257 256 255 254 253 252 251 250 249
311 311 311 310 310 310 310 310 309 309 309 308 308 308 308 308 308 308 308 307 307 307 306 306 305 305 304 304 303 302 302 301 301 301 300 300 299 298 298 297 296 294 293 292 290 289 287 286 284 283 282 281 280 279 278 277 276 276 275 275 274 273 272 271 270 269 268 267 266 265 264 263 261 260 259 258 257 257 256 255 254 253 253 252 251 250
311 311 311 310 310 310 310 309 309 309 309 309 309 309 309 309 309 309 308 308 308 308 307 307 306 306 306 305 304 304 303 303 303 303 302 302 301 300 299 299 297 296 294 293 291 290 288 287 285 284 283 282 281 280 279 279 278 277 276 275 274 273 272 271 270 269 268 267 266 265 264 263 262 261 260 259 258 257 256 255 254 253 253 252 251 250
311 311 311 310 310 310 310 310 309 309 309 309 309 310 310 310 310 309 309 309 309 309 308 308 308 307 307 306 306 305 305 304 304 305 304 304 303 302 301 300 299 298 296 295 293 291 290 288 287 286 284 283 283 282 281 280 279 278 277 276 274 273 272 271 270 269 268 267 266 265 264 263 262 261 260 259 258 257 256 255 254 253 252 251 251 250
311 311 311 310 310 310 310 310 310 309 310 310 310 310 310 310 310 310 310 309 309 309 309 308 308 308 308 307 307 307 306 306 306 306 306 305 304 304 303 302 301 299 298 296 295 293 291 290 289 288 286 285 284 283 283 282 281 280 278 276 275 273 272 271 270 269 268 267 266 265 264 263 262 261 260 259 258 257 256 255 254 253 252 251 250 249
311 311 311 311 310 310 310 310 310 310 310 310 310 310 310 310 310 310 310 310 310 309 309 309 309 308 308 309 308 308 308 308 308 307 307 307 306 305 305 304 303 301 300 298 296 295 293 292 291 290 289 287 286 285 284 283 282 280 279 277 275 274 272 271 271 269 268 267 266 265 264 263 262 261 261 260 259 258 256 255 254 253 251 250 249 248
311 311 311 311 310 310 310 310 310 310 310 310 311 310 311 311 311 310 310 310 310 310 310 309 309 309 309 309 309 309 309 309 309 309 309 308 308 307 306 306 305 303 302 300 299 297 296 294 293 292 291 290 288 287 286 284 283 281 279 277 276 275 274 273 272 271 269 268 267 265 265 263 263 262 261 260 259 258 257 256 254 253 252 250 249 248
311 311 311 311 311 310 310 310 311 311 311 311 311 311 311 311 311 311 311 311 311 311 310 310 311 311 311 311 310 310 310 310 310 310 310 309 309 309 308 308 307 305 304 302 300 299 298 297 295 294 293 292 290 289 287 285 283 281 280 278 277 277 276 275 273 272 270 269 267 266 265 264 263 262 261 260 260 258 258 257 255 254 253 251 249 248
312 311 311 311 311 311 311 311 311 311 311 311 311 311 311 311 311 311 311 311 311 311 311 311 312 312 312 312 312 312 311 311 311 311 311 311 310 310 310 310 309 307 306 304 302 301 300 298 297 296 295 293 292 290 288 286 284 282 281 280 279 279 278 276 275 273 271 270 268 267 266 265 264 263 262 261 260 259 258 257 256 254 253 252 250 248
312 312 311 311 311 311 311 311 311 311 311 311 311 311 311 311 312 312 312 312 312 312 312 312 313 313 313 313 313 313 313 313 313 312 312 312 312 312 311 311 310 309 308 306 305 303 301 300 299 298 297 295 293 291 289 287 286 284 283 282 281 280 279 277 275 273 272 271 269 268 268 267 266 265 264 262 261 260 259 257 256 255 254 252 250 249
312 312 311 311 311 311 311 311 311 312 311 311 311 312 312 312 312 313 313 313 313 313 313 313 313 313 314 314 314 314 314 314 314 314 314 314 313 313 313 312 312 311 310 308 307 305 304 302 301 300 298 296 295 293 291 289 287 286 285 284 283 281 279 277 276 274 272 271 270 270 269 268 268 267 265 264 263 261 260 258 257 255 254 252 250 249
312 312 312 311 311 312 312 312 312 312 312 312 312 312 312 313 313 313 313 314 313 313 313 313 314 314 314 314 314 315 315 315 315 315 315 315 314 314 314 314 313 312 311 310 309 307 306 304 303 301 300 298 296 294 293 291 290 288 287 285 284 281 280 278 276 275 273 272 272 271 270 270 269 268 267 266 264 262 261 259 257 255 254 252 250 248
313 312 312 312 312 312 312 312 312 312 312 312 312 312 313 313 314 314 314 314 314 314 313 314 314 314 314 315 315 315 316 316 316 316 316 316 315 315 315 315 314 313 312 311 310 309 307 305 304 303 301 300 298 296 294 293 292 290 289 287 285 282 280 279 277 276 275 274 274 273 273 272 271 270 268 267 265 263 262 260 258 256 254 252 250 248
313 313 312 312 313 313 313 313 313 313 313 313 313 313 314 314 314 314 314 314 314 314 314 314 314 314 315 315 315 316 316 317 317 317 317 317 316 316 316 316 315 314 313 312 311 309 308 306 305 304 302 301 299 298 297 295 294 292 290 288 286 284 282 281 279 278 277 277 276 275 274 273 272 271 270 268 266 264 262 260 258 256 254 252 249 247
313 313 313 313 313 313 313 313 313 313 314 314 314 314 314 315 315 314 314 314 314 313 313 314 314 315 315 315 316 316 317 317 317 317 317 317 317 317 317 317 317 316 315 314 312 310 308 307 305 304 303 302 301 300 299 297 296 294 292 290 289 287 285 283 282 281 280 279 278 278 277 275 274 273 271 269 267 265 263 261 259 256 254 251 249 246
314 314 314 314 314 314 314 314 314 314 315 315 315 315 315 315 315 315 314 314 313 313 313 313 314 314 315 315 315 316 316 317 317 317 317 317 318 318 318 318 318 318 317 315 313 311 309 307 305 304 303 303 302 302 301 300 298 297 295 294 292 291 288 286 285 284 283 282 281 280 278 277 276 274 273 271 269 267 264 262 260 257 255 251 248 246
315 315 314 315 315 315 315 315 315 315 316 316 316 316 316 317 316 316 315 314 314 313 313 313 313 313 314 314 314 315 316 316 317 317 318 318 318 319 319 319 319 319 318 317 315 313 311 309 307 305 304 304 304 304 304 303 302 301 299 298 296 293 291 289 288 287 286 285 283 282 280 279 278 277 275 273 271 268 266 263 261 258 255 251 248 244
316 315 315 315 315 315 316 316 316 316 316 317 317 317 317 318 317 317 316 316 315 314 313 313 313 313 313 313 314 314 315 316 317 318 318 319 319 319 320 320 321 320 320 319 318 316 313 311 309 307 307 307 308 309 309 309 308 306 304 301 299 297 294 293 291 290 288 287 285 284 282 281 280 279 277 275 273 271 267 264 261 258 254 251 247 243
316 316 316 316 316 316 316 317 317 317 317 317 318 318 318 319 319 318 318 317 316 315 314 314 314 314 314 314 314 314 315 316 317 318 319 319 320 320 321 321 321 322 321 321 319 318 316 313 311 311 311 312 314 316 316 315 314 311 308 304 301 298 296 295 293 292 290 289 287 286 285 284 283 281 280 278 276 272 269 265 261 257 253 249 245 241
317 317 316 317 317 317 317 318 318 318 318 318 318 319 319 320 320 319 319 318 317 315 315 315 315 315 315 315 314 315 315 316 318 318 319 320 320 320 321 321 322 322 322 322 321 319 317 315 313 313 316 318 321 323 323 321 319 315 311 306 303 300 298 296 295 293 292 291 290 288 287 286 285 284 283 281 278 274 270 265 261 256 251 246 241 237
317 317 317 318 318 318 318 318 318 318 319 319 319 320 320 321 321 320 320 319 317 316 315 315 315 315 315 316 315 315 316 316 318 319 320 320 320 321 321 322 323 323 323 322 322 320 318 317 315 317 319 324 328 330 329 326 321 316 312 308 304 302 300 299 298 296 295 294 292 291 290 289 288 287 285 283 279 274 270 264 258 253 247 241 236 231
318 318 318 319 319 319 319 319 319 319 319 320 320 321 321 321 322 321 321 320 318 317 316 316 316 316 316 316 316 316 317 318 319 320 321 321 321 322 322 323 324 324 324 323 322 321 319 318 318 320 323 329 333 335 333 329 323 317 313 309 306 304 303 302 301 300 299 297 296 294 293 292 291 289 287 284 279 274 268 261 253 245 238 232 227 223
319 319 319 319 320 319 319 319 320 320 320 320 321 321 322 322 322 322 322 321 319 318 317 316 316 316 317 317 317 318 319 320 321 322 323 323 323 323 324 324 325 325 325 324 323 321 320 319 320 323 328 333 338 340 337 332 326 320 315 312 308 307 306 305 304 304 302 301 299 297 296 295 295 292 290 285 279 272 265 256 245 234 227 220 216 212
320 320 320 320 320 320 320 320 320 320 320 321 322 322 322 322 323 323 323 322 321 319 318 317 317 317 317 317 318 319 320 321 322 324 325 324 324 324 325 325 326 327 326 325 323 321 320 320 322 327 331 337 342 344 343 337 331 324 319 315 311 309 308 308 308 308 306 304 302 302 300 299 297 294 289 283 275 267 257 245 233 220 212 207 203 200
320 320 320 320 320 320 320 320 320 320 321 321 322 322 323 323 323 323 323 323 322 320 319 318 318 317 318 318 319 320 321 323 324 325 326 326 325 326 326 326 328 328 328 326 324 321 318 318 324 330 335 338 342 346 347 343 336 329 323 318 314 311 310 311 311 310 309 309 310 310 307 307 301 294 287 279 269 256 242 228 214 205 198 193 191 190
320 320 320 320 320 319 320 320 320 321 321 322 323 323 323 323 324 324 324 323 323 322 320 319 318 318 319 319 320 321 323 324 325 326 327 327 327 327 327 328 329 331 330 328 325 321 317 318 325 336 345 346 345 345 346 346 343 335 328 322 317 313 312 312 314 313 312 316 320 322 323 320 312 296 282 269 254 235 217 202 194 189 184 181 180 179
Height
10325 10319 10314 10311 10306 10301 10293 10286 10280 10276 10269 10262 10254 10248 10243 10240 10236 10232 10228 10224 10221 10216 10212 10208 10205 10201 10199 10196 10192 10189 10186 10183 10181 10178 10176 10175 10173 10172 10171 10169 10169 10167 10167 10166 10164 10163 10162 10161 10159 10157 10156 10154 10152 10152 10151 10151 10151 10151 10151 10151 10151 10151 10151 10151 10151 10151 10152 10152 10152 10153 10154 10157 10159 10159 10161 10162 10163 10165 10167 10170 10172 10175 10178 10180 10182 10184
10313 10308 10302 10297 10293 10289 10281 10273 10266 10259 10253 10247 10241 10236 10231 10227 10224 10220 10216 10212 10207 10203 10199 10196 10192 10189 10186 10183 10181 10177 10174 10171 10169 10167 10166 10164 10162 10161 10159 10158 10157 10156 10155 10154 10152 10151 10150 10148 10146 10145 10144 10142 10142 10141 10141 10141 10141 10141 10141 10141 10141 10140 10141 10141 10140 10140 10140 10141 10141 10142 10144 10146 10147 10148 10148 10149 10151 10153 10156 10157 10160 10162 10165 10167 10169 10171
10301 10296 10289 10283 10278 10274 10268 10260 10253 10246 10238 10232 10227 10224 10219 10216 10212 10207 10203 10199 10194 10190 10187 10183 10180 10177 10174 10172 10169 10167 10164 10161 10159 10157 10155 10153 10152 10150 10149 10147 10146 10144 10143 10142 10141 10139 10138 10136 10135 10134 10133 10132 10132 10131 10131 10131 10131 10131 10131 10130 10130 10129 10129 10129 10129 10129 10129 10130 10131 10132 10134 10135 10136 10136 10137 10138 10140 10142 10144 10146 10149 10151 10152 10156 10158 10160
10287 10283 10277 10270 10264 10258 10252 10246 10239 10232 10225 10220 10216 10212 10209 10204 10199 10195 10191 10186 10182 10178 10175 10172 10169 10166 10164 10161 10159 10156 10153 10151 10148 10146 10144 10143 10141 10139 10137 10136 10134 10133 10132 10131 10129 10128 10127 10126 10125 10124 10123 10122 10122 10122 10122 10122 10121 10121 10121 10120 10119 10119 10119 10119 10119 10119 10119 10119 10121 10122 10122 10123 10124 10125 10126 10127 10129 10131 10133 10135 10137 10139 10141 10144 10146 10148
10273 10269 10264 10258 10251 10244 10236 10230 10224 10218 10212 10209 10205 10201 10197 10192 10187 10182 10178 10174 10171 10167 10164 10161 10159 10156 10153 10151 10148 10146 10144 10141 10138 10136 10134 10132 10130 10128 10126 10124 10123 10122 10121 10119 10119 10117 10117 10116 10115 10114 10114 10114 10113 10113 10113 10112 10112 10111 10111 10109 10109 10109 10108 10108 10109 10109 10109 10110 10111 10112 10112 10113 10114 10115 10116 10117 10119 10121 10122 10124 10126 10127 10130 10132 10134 10137
10259 10255 10249 10244 10238 10231 10222 10216 10211 10206 10202 10197 10194 10191 10186 10181 10176 10171 10166 10162 10159 10157 10154 10151 10148 10145 10142 10140 10138 10136 10134 10131 10128 10126 10124 10121 10119 10117 10116 10114 10112 10112 10111 10110 10109 10108 10107 10107 10106 10106 10105 10105 10105 10104 10104 10103 10102 10101 10101 10099 10099 10099 10099 10099 10099 10100 10101 10101 10102 10102 10103 10104 10104 10105 10106 10107 10109 10111 10112 10113 10115 10117 10119 10121 10124 10126
10247 10241 10236 10229 10223 10217 10210 10204 10199 10196 10192 10187 10182 10178 10174 10170 10165 10160 10156 10152 10149 10146 10144 10141 10137 10134 10131 10130 10128 10126 10124 10121 10118 10115 10113 10111 10109 10107 10106 10104 10103 10102 10102 10101 10100 10099 10099 10098 10097 10097 10097 10096 10096 10096 10094 10094 10092 10091 10091 10090 10090 10090 10090 10091 10091 10091 10092 10092 10092 10093 10094 10094 10095 10096 10096 10097 10099 10101 10102 10103 10105 10107 10109 10111 10113 10116
10234 10229 10222 10216 10209 10202 10197 10192 10187 10184 10181 10177 10172 10167 10162 10159 10155 10151 10146 10142 10138 10136 10134 10131 10127 10124 10122 10120 10119 10116 10114 10111 10107 10105 10102 10101 10099 10097 10097 10096 10095 10094 10093 10092 10092 10091 10091 10090 10089 10089 10089 10087 10087 10086 10085 10084 10082 10082 10081 10081 10081 10081 10082 10082 10082 10083 10083 10084 10084 10084 10085 10086 10086 10086 10087 10088 10089 10091 10092 10094 10095 10097 10099 10101 10103 10106
10222 10216 10210 10203 10197 10191 10186 10181 10177 10173 10170 10166 10161 10156 10152 10149 10146 10142 10137 10132 10128 10126 10124 10121 10118 10115 10112 10111 10109 10106 10104 10101 10097 10095 10093 10092 10091 10089 10089 10088 10087 10086 10086 10084 10084 10082 10082 10081 10081 10081 10080 10079 10077 10076 10075 10074 10073 10072 10072 10072 10072 10073 10074 10074 10074 10075 10076 10076 10076 10076 10076 10077 10077 10078 10079 10079 10080 10081 10082 10084 10086 10087 10089 10091 10092 10095
10211 10205 10198 10191 10186 10181 10176 10172 10167 10162 10159 10154 10151 10146 10142 10139 10136 10133 10129 10123 10119 10116 10114 10111 10109 10107 10104 10102 10099 10097 10094 10091 10088 10086 10085 10084 10083 10082 10081 10081 10079 10078 10077 10076 10075 10074 10073 10073 10072 10072 10071 10069 10068 10067 10066 10065 10064 10064 10064 10064 10065 10066 10066 10066 10067 10067 10067 10068 10068 10068 10069 10069 10069 10069 10070 10071 10071 10072 10073 10074 10076 10078 10079 10081 10083 10086
10199 10193 10187 10181 10176 10171 10167 10163 10158 10153 10149 10145 10141 10137 10133 10131 10128 10125 10121 10116 10111 10107 10104 10102 10101 10099 10097 10094 10091 10087 10084 10081 10079 10078 10077 10077 10077 10076 10074 10072 10071 10069 10067 10066 10066 10065 10065 10065 10064 10063 10062 10061 10060 10059 10058 10057 10057 10057 10057 10057 10057 10058 10058 10059 10059 10059 10060 10060 10061 10061 10061 10061 10061 10061 10061 10062 10062 10063 10064 10066 10067 10069 10071 10072 10074 10076
10189 10183 10177 10172 10167 10162 10157 10154 10149 10145 10141 10136 10132 10129 10125 10121 10119 10116 10112 10108 10104 10099 10096 10093 10091 10090 10089 10086 10082 10078 10076 10073 10071 10070 10070 10070 10069 10068 10066 10064 10061 10059 10059 10057 10057 10057 10057 10057 10056 10056 10054 10053 10052 10051 10051 10050 10050 10049 10049 10049 10050 10050 10051 10051 10051 10052 10052 10052 10052 10052 10052 10052 10053 10053 10054 10054 10054 10055 10056 10057 10059 10060 10062 10063 10065 10067
10181 10174 10169 10164 10159 10154 10149 10144 10141 10136 10132 10128 10124 10121 10117 10114 10111 10107 10104 10100 10096 10092 10089 10086 10083 10081 10080 10078 10074 10071 10067 10065 10064 10063 10062 10062 10061 10060 10057 10055 10052 10051 10051 10051 10050 10050 10050 10049 10049 10047 10047 10046 10046 10045 10044 10043 10042 10042 10042 10042 10042 10042 10043 10044 10044 10044 10044 10044 10044 10044 10044 10045 10046 10046 10046 10047 10047 10047 10048 10049 10051 10052 10053 10055 10057 10059
10172 10166 10161 10156 10151 10146 10141 10137 10133 10129 10124 10120 10116 10113 10110 10106 10103 10099 10096 10092 10088 10085 10082 10079 10076 10074 10072 10070 10067 10064 10061 10058 10057 10056 10055 10054 10053 10051 10049 10047 10046 10045 10045 10044 10044 10042 10042 10042 10041 10040 10039 10039 10038 10037 10037 10036 10035 10035 10034 10034 10035 10036 10036 10036 10036 10036 10036 10036 10036 10037 10037 10037 10038 10039 10039 10039 10040 10041 10041 10042 10042 10044 10045 10047 10048 10051
10162 10157 10152 10147 10142 10137 10132 10129 10125 10121 10117 10112 10109 10106 10102 10099 10096 10092 10088 10084 10081 10077 10074 10071 10068 10066 10064 10062 10060 10057 10054 10051 10050 10049 10047 10047 10046 10044 10042 10040 10039 10038 10038 10037 10037 10036 10035 10034 10034 10032 10032 10032 10031 10031 10029 10029 10028 10027 10027 10027 10027 10028 10028 10029 10029 10029 10029 10029 10029 10029 10030 10031 10031 10032 10032 10032 10033 10034 10034 10034 10035 10036 10037 10038 10040 10041
10153 10148 10144 10139 10134 10129 10124 10121 10117 10114 10109 10105 10101 10098 10095 10091 10087 10084 10081 10077 10074 10071 10067 10064 10061 10059 10057 10055 10053 10051 10047 10045 10043 10042 10041 10039 10038 10036 10035 10033 10032 10031 10031 10031 10029 10029 10027 10027 10027 10026 10026 10025 10024 10024 10022 10022 10021 10021 10021 10021 10021 10021 10021 10021 10022 10022 10022 10022 10022 10023 10023 10024 10024 10024 10025 10026 10026 10027 10027 10027 10027 10028 10029 10030 10031 10033
10144 10139 10134 10130 10126 10121 10116 10112 10109 10106 10102 10097 10094 10090 10087 10084 10081 10077 10074 10071 10067 10064 10061 10058 10055 10052 10049 10047 10046 10044 10042 10039 10037 10036 10035 10033 10031 10030 10029 10027 10026 10024 10024 10024 10023 10022 10021 10021 10020 10019 10019 10018 10017 10017 10016 10016 10015 10015 10014 10014 10014 10014 10014 10015 10015 10015 10016 10016 10016 10016 10016 10017 10017 10017 10017 10018 10019 10019 10019 10020 10021 10021 10022 10023 10024 10026
10136 10130 10126 10121 10117 10113 10109 10105 10102 10098 10094 10091 10086 10083 10079 10077 10074 10071 10067 10064 10062 10058 10054 10052 10049 10046 10043 10040 10038 10037 10036 10034 10032 10030 10029 10027 10026 10024 10022 10021 10020 10019 10018 10017 10017 10016 10016 10015 10014 10013 10012 10012 10011 10011 10010 10009 10009 10009 10009 10009 10009 10008 10008 10008 10009 10009 10009 10009 10009 10009 10010 10010 10010 10011 10011 10011 10012 10012 10012 10013 10014 10014 10015 10016 10017 10018
10127 10122 10117 10114 10110 10106 10101 10097 10094 10091 10087 10084 10080 10076 10072 10069 10067 10064 10062 10059 10056 10052 10049 10046 10042 10040 10037 10035 10032 10030 10029 10028 10026 10024 10023 10021 10020 10018 10017 10016 10015 10014 10013 10012 10011 10010 10009 10009 10008 10007 10007 10006 10005 10004 10004 10004 10003 10003 10003 10003 10002 10002 10002 10002 10002 10002 10002 10003 10003 10003 10003 10003 10004 10004 10004 10005 10006 10006 10007 10007 10008 10009 10009 10010 10011 10012
10119 10114 10109 10106 10103 10099 10094 10091 10087 10084 10081 10077 10074 10070 10067 10063 10061 10058 10055 10052 10050 10047 10044 10041 10037 10034 10032 10029 10027 10024 10023 10022 10021 10019 10017 10016 10014 10012 10011 10011 10009 10009 10008 10007 10006 10005 10004 10004 10002 10002 10001 10001 10000 9999 9999 9998 9997 9997 9997 9997 9997 9997 9997 9997 9997 9997 9997 9997 9997 9997 9997 9997 9998 9998 9999 9999 9999 10000 10001 10001 10002 10002 10003 10004 10004 10005
10112 10106 10102 10099 10096 10092 10088 10084 10081 10077 10074 10071 10068 10064 10061 10057 10054 10052 10049 10047 10044 10042 10039 10036 10032 10029 10027 10024 10022 10019 10018 10017 10015 10014 10012 10011 10009 10008 10007 10006 10004 10004 10003 10002 10001 10001 9999 9999 9997 9997 9996 9996 9995 9994 9994 9993 9992 9992 9992 9992 9992 9992 9992 9992 9991 9991 9991 9991 9992 9992 9992 9992 9992 9992 9992 9993 9994 9994 9994 9995 9996 9996 9997 9997 9998 9999
10104 10100 10096 10092 10089 10086 10082 10077 10074 10071 10069 10066 10062 10059 10055 10052 10049 10046 10044 10041 10039 10036 10034 10031 10028 10025 10022 10019 10017 10014 10013 10012 10011 10009 10007 10006 10004 10003 10002 10001 10000 9999 9998 9997 9996 9996 9995 9994 9992 9992 9991 9991 9990 9989 9989 9988 9987 9987 9987 9987 9987 9987 9987 9987 9986 9986 9986 9987 9987 9987 9987 9987 9987 9987 9987 9987 9987 9988 9989 9989 9990 9990 9991 9991 9992 9993
10097 10094 10089 10086 10082 10079 10075 10072 10068 10065 10062 10060 10056 10053 10049 10047 10044 10041 10038 10036 10034 10031 10029 10026 10023 10020 10017 10015 10012 10010 10009 10007 10006 10004 10003 10001 9999 9999 9997 9997 9996 9995 9994 9993 9992 9991 9990 9989 9988 9987 9986 9986 9985 9984 9984 9984 9983 9982 9982 9982 9982 9982 9982 9982 9982 9982 9982 9982 9982 9982 9982 9982 9982 9982 9982 9982 9982 9982 9982 9983 9984 9984 9985 9986 9986 9987
10091 10087 10083 10079 10076 10072 10069 10066 10063 10059 10056 10053 10050 10047 10044 10042 10039 10036 10034 10031 10029 10026 10024 10021 10018 10016 10013 10011 10009 10006 10004 10003 10002 10000 9999 9997 9996 9994 9993 9992 9991 9991 9989 9989 9987 9986 9985 9984 9983 9982 9981 9981 9981 9980 9979 9979 9978 9978 9977 9977 9977 9977 9977 9977 9977 9977 9977 9977 9977 9977 9977 9977 9977 9976 9976 9976 9977 9977 9977 9977 9978 9979 9979 9980 9981 9981
10086 10081 10077 10074 10071 10067 10064 10060 10057 10054 10050 10047 10044 10042 10039 10036 10034 10031 10029 10026 10024 10021 10019 10016 10014 10011 10009 10007 10004 10002 10000 9999 9997 9996 9995 9993 9992 9990 9989 9988 9987 9986 9985 9984 9983 9982 9981 9979 9979 9978 9977 9976 9976 9975 9974 9974 9974 9974 9973 9973 9973 9972 9972 9972 9972 9972 9972 9972 9972 9972 9972 9972 9972 9971 9971 9971 9971 9971 9972 9972 9972 9973 9974 9974 9975 9976
10080 10076 10072 10069 10065 10062 10058 10055 10052 10049 10046 10042 10039 10036 10034 10031 10029 10027 10024 10022 10019 10017 10014 10012 10009 10007 10005 10003 10001 9998 9996 9995 9994 9992 9991 9990 9988 9986 9986 9984 9983 9982 9981 9980 9979 9977 9976 9975 9974 9974 9972 9972 9971 9971 9971 9970 9970 9969 9969 9969 9969 9969 9968 9968 9968 9967 9967 9967 9967 9967 9967 9967 9967 9966 9966 9966 9966 9967 9967 9967 9967 9968 9969 9969 9970 9971
10074 10071 10067 10063 10060 10056 10053 10050 10047 10044 10041 10037 10035 10032 10029 10027 10024 10022 10019 10017 10015 10012 10010 10007 10005 10003 10001 9999 9997 9995 9992 9991 9990 9989 9988 9986 9985 9983 9982 9981 9979 9978 9977 9976 9975 9974 9972 9971 9971 9970 9969 9968 9967 9967 9966 9966 9966 9966 9966 9966 9965 9965 9964 9964 9964 9963 9963 9963 9962 9962 9962 9962 9962 9962 9962 9962 9962 9962 9962 9962 9963 9963 9964 9964 9965 9966
10069 10066 10062 10058 10055 10052 10049 10045 10042 10039 10036 10033 10031 10027 10025 10023 10021 10017 10015 10012 10011 10009 10006 10004 10001 9999 9997 9995 9993 9991 9989 9987 9986 9985 9984 9983 9981 9980 9979 9977 9976 9975 9973 9972 9971 9970 9969 9967 9966 9966 9966 9964 9964 9963 9962 9962 9962 9962 9962 9962 9961 9961 9961 9960 9960 9959 9959 9959 9958 9958 9957 9957 9957 9957 9957 9957 9957 9958 9958 9958 9959 9959 9959 9960 9961 9961
10064 10060 10057 10053 10050 10047 10044 10041 10037 10034 10032 10029 10026 10024 10021 10019 10016 10014 10011 10009 10007 10005 10002 10001 9998 9996 9994 9991 9989 9988 9986 9984 9983 9982 9981 9979 9978 9977 9976 9974 9972 9971 9970 9969 9967 9966 9965 9964 9963 9962 9962 9961 9961 9960 9959 9959 9959 9959 9959 9958 9957 9957 9957 9956 9956 9956 9955 9955 9954 9954 9954 9953 9953 9953 9953 9953 9953 9954 9954 9954 9954 9954 9955 9956 9956 9957
10058 10055 10052 10048 10045 10042 10039 10036 10033 10031 10027 10025 10022 10020 10017 10015 10012 10010 10007 10006 10004 10001 9999 9997 9995 9993 9991 9989 9986 9984 9982 9981 9980 9979 9977 9976 9975 9974 9972 9971 9970 9968 9967 9965 9964 9963 9962 9961 9960 9959 9959 9958 9957 9957 9956 9956 9956 9956 9955 9954 9954 9953 9953 9952 9952 9952 9951 9951 9951 9950 9949 9949 9949 9949 9949 9949 9949 9949 9949 9950 9950 9951 9951 9951 9952 9952
10053 10050 10047 10044 10041 10037 10034 10032 10029 10026 10024 10021 10019 10016 10014 10011 10009 10006 10004 10002 10000 9998 9996 9994 9992 9991 9989 9986 9984 9982 9979 9978 9977 9976 9975 9974 9972 9971 9969 9968 9967 9966 9964 9962 9961 9960 9959 9958 9957 9956 9956 9956 9955 9954 9954 9953 9952 9952 9951 9951 9950 9950 9949 9949 9949 9948 9948 9947 9947 9946 9946 9946 9946 9945 9945 9945 9945 9946 9946 9946 9946 9946 9947 9947 9947 9948
10048 10045 10042 10039 10036 10033 10031 10027 10025 10022 10020 10017 10015 10012 10011 10008 10006 10003 10001 9999 9997 9995 9993 9991 9989 9987 9986 9984 9982 9980 9977 9976 9974 9973 9972 9971 9969 9967 9967 9966 9964 9962 9961 9960 9959 9957 9956 9955 9954 9954 9953 9952 9952 9951 9951 9950 9949 9949 9948 9947 9947 9946 9946 9946 9946 9945 9944 9944 9943 9943 9942 9942 9942 9942 9942 9942 9942 9942 9942 9942 9942 9943 9943 9944 9944 9944
10044 10041 10037 10034 10032 10029 10026 10024 10021 10019 10016 10014 10011 10009 10007 10005 10002 10001 9998 9996 9994 9992 9990 9987 9986 9984 9982 9981 9980 9977 9976 9974 9972 9971 9969 9968 9966 9965 9964 9962 9961 9960 9959 9957 9956 9955 9954 9952 9952 9951 9951 9950 9949 9949 9948 9947 9946 9946 9945 9944 9944 9944 9943 9943 9942 9942 9941 9941 9940 9939 9939 9939 9939 9939 9939 9939 9939 9939 9939 9939 9939 9939 9940 9940 9941 9941
10039 10036 10033 10031 10027 10025 10022 10020 10017 10015 10012 10011 10008 10006 10004 10002 9999 9997 9996 9993 9991 9989 9987 9985 9983 9981 9979 9978 9976 9975 9974 9972 9970 9969 9967 9966 9964 9962 9961 9960 9959 9957 9956 9955 9954 9952 9951 9951 9949 9949 9948 9947 9947 9946 9945 9944 9944 9943 9942 9942 9941 9941 9941 9940 9939 9938 9937 9937 9937 9936 9936 9936 9936 9936 9936 9936 9936 9936 9936 9936 9936 9936 9937 9937 9937 9937
10035 10032 10029 10026 10024 10021 10019 10016 10014 10012 10009 10007 10005 10003 10001 9999 9996 9994 9992 9990 9988 9986 9984 9982 9981 9979 9977 9976 9974 9972 9971 9969 9968 9967 9965 9964 9962 9960 9959 9957 9956 9956 9954 9953 9952 9951 9949 9948 9947 9947 9946 9945 9944 9944 9942 9942 9941 9941 9940 9939 9939 9938 9937 9937 9936 9936 9935 9934 9934 9933 9933 9932 9932 9932 9932 9932 9932 9932 9933 9933 9933 9933 9934 9934 9934 9935
10031 10028 10025 10022 10020 10018 10016 10013 10011 10009 10006 10004 10002 10000 9997 9996 9994 9992 9989 9987 9986 9983 9981 9979 9978 9976 9975 9973 9971 9970 9968 9967 9966 9964 9962 9961 9960 9958 9957 9955 9954 9953 9952 9951 9949 9949 9947 9946 9946 9944 9944 9943 9942 9941 9941 9940 9939 9939 9938 9937 9937 9936 9935 9934 9933 9932 9932 9931 9931 9931 9930 9930 9930 9930 9930 9930 9930 9930 9930 9931 9931 9931 9931 9931 9932 9932
10027 10024 10021 10019 10017 10014 10012 10010 10008 10006 10004 10001 9999 9997 9995 9993 9991 9989 9987 9985 9982 9981 9979 9977 9976 9974 9972 9971 9970 9968 9966 9965 9963 9962 9961 9959 9958 9956 9955 9953 9952 9951 9950 9949 9947 9946 9946 9944 9944 9942 9942 9941 9940 9939 9939 9938 9937 9937 9936 9935 9934 9933 9932 9932 9931 9930 9929 9929 9929 9928 9928 9927 9927 9927 9927 9927 9927 9927 9927 9927 9928 9928 9928 9929 9929 9929
10023 10021 10018 10016 10013 10011 10009 10007 10005 10002 10001 9999 9996 9994 9992 9991 9988 9986 9984 9982 9980 9978 9976 9974 9972 9971 9970 9969 9967 9966 9964 9963 9961 9960 9958 9957 9956 9954 9952 9951 9950 9949 9948 9947 9946 9944 9944 9942 9942 9941 9940 9939 9938 9937 9937 9936 9935 9934 9934 9933 9932 9931 9931 9929 9929 9928 9927 9927 9927 9926 9926 9926 9926 9925 9925 9925 9925 9924 9924 9925 9925 9926 9926 9926 9926 9927
10020 10017 10014 10012 10010 10008 10006 10004 10002 10000 9997 9996 9994 9992 9990 9988 9986 9984 9982 9980 9977 9976 9974 9972 9971 9969 9967 9966 9964 9963 9962 9961 9959 9958 9956 9955 9954 9952 9951 9949 9948 9947 9946 9945 9944 9942 9942 9941 9940 9939 9938 9937 9936 9936 9935 9934 9934 9932 9932 9931 9930 9929 9929 9928 9927 9926 9926 9926 9925 9924 9924 9924 9923 9923 9923 9922 9922 9922 9922 9922 9922 9922 9922 9923 9924 9924
10016 10014 10011 10009 10007 10005 10002 10001 9999 9997 9995 9993 9991 9989 9987 9986 9984 9982 9980 9977 9976 9974 9972 9970 9968 9967 9965 9964 9962 9961 9960 9959 9957 9956 9954 9952 9951 9950 9949 9947 9946 9945 9944 9943 9942 9941 9940 9939 9938 9937 9936 9936 9935 9934 9933 9932 9932 9931 9930 9929 9928 9927 9927 9926 9926 9925 9924 9924 9923 9923 9922 9922 9922 9921 9921 9921 9921 9921 9921 9920 9920 9920 9921 9921 9922 9922
10013 10011 10008 10006 10004 10002 9999 9997 9996 9994 9992 9990 9988 9986 9985 9983 9981 9979 9977 9976 9974 9972 9970 9968 9966 9965 9964 9962 9961 9959 9957 9957 9956 9954 9952 9951 9949 9948 9947 9946 9945 9944 9942 9941 9941 9939 9939 9937 9937 9936 9935 9934 9934 9932 9932 9931 9931 9929 9929 9927 9927 9926 9926 9925 9924 9924 9923 9922 9922 9921 9921 9921 9920 9920 9919 9919 9919 9919 9919 9919 9918 9918 9919 9919 9920 9921
10010 10007 10005 10003 10001 9999 9997 9994 9992 9991 9989 9987 9986 9984 9982 9981 9979 9977 9976 9974 9971 9969 9968 9966 9965 9963 9962 9961 9959 9957 9956 9955 9954 9952 9951 9949 9948 9947 9946 9944 9943 9942 9941 9940 9939 9938 9937 9936 9935 9934 9934 9932 9932 9931 9931 9930 9929 9928 9927 9926 9926 9925 9924 9924 9923 9922 9922 9921 9921 9921 9920 9919 9919 9919 9918 9917 9917 9917 9917 9917 9917 9917 9917 9917 9919 9919
10007 10004 10002 10000 9997 9996 9994 9992 9990 9988 9986 9984 9983 9981 9979 9978 9976 9975 9973 9971 9969 9967 9966 9964 9962 9961 9960 9959 9957 9956 9954 9953 9952 9951 9949 9947 9946 9945 9944 9942 9942 9941 9939 9939 9937 9936 9936 9935 9934 9933 9932 9932 9931 9930 9929 9929 9927 9927 9926 9925 9924 9924 9922 9922 9922 9921 9921 9921 9920 9919 9919 9918 9918 9917 9917 9916 9916 9916 9916 9916 9916 9916 9916 9916 9917 9917
10004 10001 9999 9997 9995 9993 9991 9989 9987 9986 9984 9982 9981 9979 9977 9976 9974 9972 9971 9969 9967 9965 9963 9962 9961 9959 9958 9957 9956 9954 9953 9952 9951 9949 9947 9946 9945 9944 9942 9941 9940 9939 9938 9937 9936 9935 9934 9934 9932 9932 9931 9931 9930 9929 9928 9927 9927 9926 9925 9924 9924 9923 9922 9921 9921 9921 9920 9920 9919 9919 9918 9917 9917 9916 9916 9916 9915 9915 9914 9914 9914 9914 9915 9915 9916 9916
10001 9999 9996 9994 9992 9991 9989 9987 9985 9983 9981 9979 9978 9976 9975 9974 9972 9971 9969 9967 9965 9962 9961 9959 9958 9957 9956 9955 9954 9952 9951 9950 9949 9947 9946 9945 9944 9942 9941 9940 9939 9937 9937 9936 9935 9934 9933 9932 9932 9931 9930 9929 9929 9928 9927 9926 9926 9925 9924 9923 9922 9922 9922 9921 9921 9920 9919 9919 9919 9918 9917 9917 9916 9916 9915 9915 9914 9914 9914 9914 9914 9914 9914 9914 9914 9915
9998 9996 9994 9992 9990 9988 9986 9984 9982 9981 9979 9977 9976 9974 9972 9971 9970 9968 9967 9965 9963 9961 9959 9957 9956 9955 9954 9952 9952 9951 9950 9949 9947 9946 9945 9944 9942 9941 9940 9939 9937 9937 9936 9935 9934 9933 9932 9932 9931 9930 9929 9929 9928 9927 9927 9926 9925 9924 9923 9922 9922 9921 9921 9921 9920 9920 9919 9919 9918 9917 9917 9916 9916 9916 9915 9914 9914 9914 9913 9913 9913 9913 9913 9913 9914 9914
9996 9993 9991 9989 9987 9986 9983 9982 9980 9978 9976 9975 9973 9972 9971 9969 9968 9966 9965 9963 9961 9959 9957 9956 9954 9953 9952 9951 9950 9949 9948 9947 9946 9945 9944 9942 9941 9940 9939 9937 9937 9936 9935 9934 9933 9932 9931 9931 9930 9929 9929 9928 9927 9926 9926 9925 9924 9924 9923 9922 9921 9921 9921 9920 9920 9919 9919 9919 9918 9917 9917 9916 9916 9915 9914 9914 9914 9913 9913 9913 9913 9913 9913 9913 9913 9914
9993 9991 9989 9987 9985 9983 9981 9979 9977 9976 9974 9972 9971 9970 9969 9967 9966 9964 9963 9962 9960 9958 9956 9954 9953 9952 9951 9949 9948 9947 9946 9946 9944 9943 9942 9941 9940 9939 9938 9937 9936 9935 9934 9933 9932 9932 9931 9930 9929 9929 9928 9927 9927 9926 9925 9924 9924 9923 9922 9922 9921 9921 9920 9920 9919 9919 9919 9919 9918 9917 9917 9916 9916 9915 9915 9914 9914 9914 9913 9912 9912 9913 9913 9913 9914 9914
9991 9988 9986 9984 9982 9981 9979 9977 9976 9974 9972 9971 9969 9968 9967 9966 9964 9963 9961 9960 9958 9957 9955 9953 9952 9950 9949 9947 9947 9946 9945 9944 9943 9942 9941 9940 9939 9938 9937 9936 9935 9934 9933 9932 9932 9931 9930 9929 9929 9928 9927 9927 9926 9926 9925 9924 9923 9922 9922 9921 9921 9921 9920 9919 9919 9919 9919 9919 9918 9917 9917 9917 9916 9916 9915 9915 9914 9914 9913 9913 9913 9913 9913 9914 9914 9914
9988 9986 9984 9982 9981 9979 9977 9976 9974 9972 9971 9969 9968 9966 9965 9964 9962 9961 9960 9958 9957 9955 9954 9952 9951 9949 9947 9946 9946 9944 9944 9942 9942 9941 9940 9939 9938 9937 9936 9935 9934 9933 9932 9932 9931 9931 9929 9929 9928 9927 9927 9926 9926 9925 9924 9924 9923 9922 9922 9921 9921 9921 9920 9919 9919 9919 9919 9919 9918 9917 9917 9917 9916 9916 9916 9915 9915 9914 9914 9914 9914 9914 9914 9914 9914 9915
9986 9984 9982 9980 9978 9976 9975 9973 9972 9971 9969 9967 9966 9965 9964 9962 9961 9959 9958 9957 9956 9954 9952 9951 9949 9947 9946 9945 9944 9943 9942 9942 9941 9939 9939 9937 9937 9936 9935 9934 9933 9932 9932 9931 9931 9930 9929 9929 9928 9927 9926 9926 9926 9925 9924 9924 9923 9922 9922 9921 9921 9921 9920 9920 9919 9919 9919 9919 9918 9917 9917 9917 9917 9916 9916 9916 9915 9915 9914 9914 9914 9914 9914 9914 9915 9916